2023/03/11 23:24:28+0000,-34.27,-39.28,-35.08,-38.69,-48.95,-49.39
2023/03/11 23:25:20+0000,-34.16,-39.55,-34.31,-39.45,-47.94,-50.06
2023/03/11 23:26:12+0000,-34.28,-38.87,-34.63,-38.92,-49.37,-46.88
2023/03/11 23:27:04+0000,-34.55,-39.70,-34.70,-38.85,-48.21,-46.42
2023/03/11 23:27:56+0000,-34.21,-40.05,-34.58,-39.45,-49.76,-48.62
2023/03/11 23:28:48+0000,-34.07,-39.46,-34.58,-39.06,-48.67,-49.17
2023/03/11 23:29:40+0000,-33.92,-39.96,-34.24,-38.92,-50.37,-48.32
2023/03/11 23:30:32+0000,-34.37,-39.52,-34.12,-39.49,-48.70,-53.52
2023/03/11 23:31:31+0000,-35.34,-39.45,-34.10,-39.29,-48.88,-53.07
2023/03/11 23:32:23+0000,-34.19,-39.36,-33.95,-38.91,-48.09,-48.67
2023/03/11 23:33:15+0000,-34.58,-39.00,-34.55,-39.34,-49.24,-50.23
2023/03/11 23:34:07+0000,-34.02,-38.97,-34.09,-40.00,-49.18,-50.90
2023/03/11 23:34:59+0000,-34.41,-39.54,-33.49,-39.45,-47.99,-50.28
2023/03/11 23:35:51+0000,-34.45,-39.29,-34.34,-39.09,-49.45,-49.11
2023/03/11 23:36:43+0000,-34.91,-39.74,-34.70,-38.98,-49.29,-47.36
2023/03/11 23:37:35+0000,-34.12,-39.65,-34.75,-39.22,-47.80,-48.62
2023/03/11 23:38:27+0000,-33.93,-38.55,-35.18,-38.84,-50.04,-50.44
2023/03/11 23:39:19+0000,-33.67,-39.09,-34.73,-39.65,-48.42,-51.54
2023/03/11 23:40:12+0000,-34.41,-40.38,-33.71,-38.68,-50.36,-43.76
2023/03/11 23:41:16+0000,-35.51,-39.88,-34.68,-38.89,-49.56,-44.61
2023/03/11 23:42:08+0000,-34.78,-40.18,-34.50,-39.26,-49.25,-46.75
2023/03/11 23:43:00+0000,-33.66,-39.37,-34.73,-39.33,-48.95,-51.86
2023/03/11 23:43:52+0000,-34.05,-39.62,-34.76,-39.41,-48.74,-51.54
2023/03/11 23:44:44+0000,-34.13,-40.56,-34.31,-39.27,-47.66,-45.94
2023/03/11 23:45:36+0000,-34.52,-40.11,-34.14,-39.12,-48.97,-46.78
2023/03/11 23:46:28+0000,-34.78,-40.78,-34.38,-38.91,-49.06,-51.59
2023/03/11 23:47:20+0000,-35.03,-40.03,-33.53,-39.78,-48.73,-50.44
2023/03/11 23:48:12+0000,-35.26,-41.45,-34.99,-39.32,-50.33,-47.54
2023/03/11 23:49:04+0000,-34.26,-39.53,-34.19,-39.23,-49.47,-48.00
2023/03/11 23:49:56+0000,-34.55,-40.73,-34.44,-37.62,-49.97,-51.62
2023/03/11 23:50:48+0000,-34.16,-39.10,-34.19,-39.22,-49.50,-53.54
2023/03/11 23:51:48+0000,-34.94,-40.33,-34.35,-38.67,-49.17,-53.33
2023/03/11 23:52:40+0000,-34.75,-40.19,-34.04,-38.96,-48.16,-47.48
2023/03/11 23:53:32+0000,-34.56,-38.84,-34.44,-38.92,-48.87,-53.46
2023/03/11 23:54:24+0000,-34.60,-39.51,-34.37,-39.04,-48.26,-51.53
2023/03/11 23:55:16+0000,-34.08,-40.33,-34.59,-38.54,-49.26,-48.71
2023/03/11 23:56:08+0000,-34.78,-39.10,-34.45,-39.38,-49.38,-49.89
2023/03/11 23:57:00+0000,-34.65,-39.24,-34.46,-39.10,-49.81,-50.67
2023/03/11 23:57:52+0000,-34.44,-39.21,-34.87,-39.55,-49.04,-51.52
2023/03/11 23:58:44+0000,-34.68,-39.94,-34.26,-39.42,-49.51,-50.22
2023/03/11 23:59:36+0000,-34.04,-40.22,-34.95,-39.83,-48.87,-50.43
2023/03/12 00:00:28+0000,-34.43,-39.48,-34.28,-39.79,-48.61,-51.74
2023/03/12 00:01:31+0000,-34.41,-38.69,-34.01,-39.13,-48.80,-53.30
2023/03/12 00:02:23+0000,-34.24,-39.26,-33.90,-39.25,-48.73,-50.74
2023/03/12 00:03:15+0000,-33.93,-38.94,-34.42,-39.08,-49.12,-51.91
2023/03/12 00:04:07+0000,-34.53,-39.91,-34.33,-39.04,-49.71,-50.65
2023/03/12 00:04:59+0000,-34.79,-39.57,-34.49,-39.71,-48.74,-49.94
2023/03/12 00:05:51+0000,-33.79,-40.52,-34.19,-39.24,-48.85,-50.34
2023/03/12 00:06:43+0000,-34.06,-40.54,-34.22,-38.86,-49.47,-51.54
2023/03/12 00:07:35+0000,-34.75,-39.82,-34.29,-38.47,-49.12,-50.81
2023/03/12 00:08:27+0000,-34.52,-40.68,-34.52,-38.98,-48.76,-50.82
2023/03/12 00:09:19+0000,-33.77,-39.76,-34.77,-39.50,-48.14,-52.27
2023/03/12 00:10:11+0000,-34.22,-39.77,-34.98,-38.76,-49.16,-51.78
2023/03/12 00:11:09+0000,-33.56,-39.39,-34.79,-39.09,-50.35,-50.06
2023/03/12 00:12:01+0000,-34.41,-39.89,-34.53,-39.72,-48.86,-53.57
2023/03/12 00:12:53+0000,-33.78,-39.95,-34.02,-39.15,-48.46,-51.50
2023/03/12 00:13:45+0000,-34.50,-40.35,-34.38,-38.38,-48.72,-53.23
2023/03/12 00:14:37+0000,-33.66,-39.69,-34.45,-39.09,-48.44,-50.56
2023/03/12 00:15:30+0000,-34.04,-40.06,-34.48,-39.50,-50.19,-48.84
2023/03/12 00:16:22+0000,-34.37,-40.59,-34.06,-39.26,-47.31,-51.36
2023/03/12 00:17:14+0000,-34.21,-40.30,-34.14,-38.72,-47.79,-49.30
2023/03/12 00:18:06+0000,-33.75,-40.20,-34.24,-38.66,-48.57,-49.26
2023/03/12 00:18:58+0000,-33.57,-39.18,-34.90,-39.33,-48.19,-51.58
2023/03/12 00:19:50+0000,-34.54,-39.95,-34.25,-40.02,-47.09,-50.52
2023/03/12 00:20:42+0000,-34.41,-39.88,-34.13,-39.07,-47.00,-47.09
2023/03/12 00:21:40+0000,-34.05,-41.00,-34.48,-38.96,-50.62,-47.70
2023/03/12 00:22:32+0000,-27.70,-39.80,-34.38,-42.01,-49.46,-52.42
2023/03/12 00:23:24+0000,-32.82,-40.76,-34.27,-42.67,-46.97,-49.36
2023/03/12 00:24:16+0000,-33.28,-40.39,-34.19,-42.64,-48.22,-52.21
2023/03/12 00:25:08+0000,-32.83,-39.62,-34.50,-42.59,-48.48,-51.09
2023/03/12 00:26:00+0000,-32.07,-40.28,-33.50,-41.23,-48.73,-48.56
2023/03/12 00:26:52+0000,-32.75,-40.14,-34.75,-41.58,-47.95,-49.02
2023/03/12 00:27:44+0000,-33.36,-40.18,-34.31,-42.70,-48.46,-49.76
2023/03/12 00:28:36+0000,-33.53,-39.66,-34.16,-41.26,-49.23,-50.13
2023/03/12 00:29:28+0000,-32.50,-40.42,-34.29,-41.77,-48.86,-51.08
2023/03/12 00:30:21+0000,-33.48,-40.24,-34.06,-38.57,-48.39,-50.91
2023/03/12 00:31:19+0000,-33.38,-39.52,-33.91,-41.49,-49.06,-52.00
2023/03/12 00:32:11+0000,-33.22,-40.39,-33.67,-39.18,-50.32,-48.89
2023/03/12 00:33:03+0000,-33.99,-40.04,-33.49,-40.02,-47.09,-52.07
2023/03/12 00:33:55+0000,-33.52,-39.45,-34.48,-39.68,-50.72,-49.47
2023/03/12 00:34:47+0000,-33.28,-40.09,-33.56,-37.78,-49.42,-52.00
2023/03/12 00:35:39+0000,-33.55,-39.55,-33.63,-38.77,-50.73,-51.43
2023/03/12 00:36:32+0000,-33.13,-39.34,-33.65,-38.82,-48.52,-52.60
2023/03/12 00:37:24+0000,-33.54,-40.33,-33.68,-35.99,-48.19,-50.05
2023/03/12 00:38:16+0000,-33.68,-40.06,-33.68,-38.47,-48.58,-51.19
2023/03/12 00:39:08+0000,-33.56,-40.56,-33.63,-39.28,-49.43,-51.71
2023/03/12 00:40:00+0000,-33.50,-39.84,-33.64,-37.13,-49.39,-50.58
2023/03/12 00:40:59+0000,-33.31,-40.45,-33.62,-36.99,-49.91,-50.18
2023/03/12 00:41:52+0000,-32.99,-39.98,-33.70,-36.91,-47.92,-50.82
2023/03/12 00:42:44+0000,-33.77,-39.56,-33.51,-36.58,-47.39,-50.89
2023/03/12 00:43:36+0000,-33.14,-40.50,-33.76,-36.80,-48.31,-51.16
2023/03/12 00:44:28+0000,-33.05,-39.86,-34.08,-35.26,-49.36,-51.00
2023/03/12 00:45:20+0000,-33.96,-39.85,-32.94,-36.64,-48.55,-51.57
2023/03/12 00:46:12+0000,-33.54,-40.08,-32.92,-35.67,-49.86,-51.14
2023/03/12 00:47:04+0000,-33.42,-39.51,-33.39,-36.76,-48.90,-52.33
2023/03/12 00:47:56+0000,-33.24,-39.71,-33.78,-36.26,-49.73,-49.90
2023/03/12 00:48:48+0000,-34.08,-39.95,-33.08,-36.65,-48.10,-51.69
2023/03/12 00:49:40+0000,-33.51,-39.13,-33.42,-36.49,-49.35,-49.95
2023/03/12 00:50:32+0000,-33.88,-39.70,-33.54,-36.28,-49.07,-52.66
2023/03/12 00:51:30+0000,-33.58,-40.24,-33.25,-36.27,-49.30,-50.90
2023/03/12 00:52:23+0000,-34.00,-39.96,-32.96,-36.39,-46.84,-49.99
2023/03/12 00:53:15+0000,-33.37,-39.56,-34.10,-37.92,-48.56,-50.28
2023/03/12 00:54:07+0000,-33.51,-39.91,-33.87,-36.80,-48.83,-51.41
2023/03/12 00:54:59+0000,-33.75,-38.55,-33.48,-36.02,-49.31,-50.19
2023/03/12 00:55:51+0000,-33.62,-38.97,-33.44,-36.87,-44.86,-49.34
2023/03/12 00:56:43+0000,-33.23,-39.10,-34.09,-37.60,-46.04,-50.85
2023/03/12 00:57:35+0000,-34.28,-37.91,-33.24,-37.50,-49.76,-50.72
2023/03/12 00:58:27+0000,-33.57,-37.90,-33.91,-36.09,-50.65,-48.86
2023/03/12 00:59:19+0000,-33.75,-39.17,-33.62,-37.04,-46.73,-52.39
2023/03/12 01:00:11+0000,-33.88,-38.51,-32.27,-37.80,-51.20,-49.96
2023/03/12 01:01:10+0000,-33.76,-38.97,-33.56,-38.37,-50.81,-48.38
2023/03/12 01:02:02+0000,-34.35,-38.76,-32.99,-37.59,-49.18,-50.81
2023/03/12 01:02:54+0000,-33.44,-39.54,-33.71,-37.79,-51.18,-47.13
2023/03/12 01:03:46+0000,-33.75,-38.42,-34.25,-37.21,-49.15,-52.10
2023/03/12 01:04:38+0000,-33.87,-39.99,-32.47,-36.88,-48.11,-48.88
2023/03/12 01:05:30+0000,-33.59,-38.90,-32.14,-36.08,-50.19,-52.13
2023/03/12 01:06:22+0000,-33.77,-40.08,-33.36,-36.44,-48.52,-49.72
2023/03/12 01:07:14+0000,-33.48,-40.25,-33.80,-37.10,-47.75,-48.46
2023/03/12 01:08:06+0000,-32.61,-39.26,-33.27,-37.28,-49.75,-48.95
2023/03/12 01:08:58+0000,-33.29,-39.80,-33.22,-36.59,-49.66,-47.52
2023/03/12 01:09:51+0000,-32.85,-39.76,-33.10,-36.55,-48.65,-47.36
2023/03/12 01:10:43+0000,-33.70,-39.58,-34.06,-36.32,-48.39,-47.83
2023/03/12 01:11:41+0000,-33.02,-39.26,-33.17,-36.55,-50.75,-49.11
2023/03/12 01:12:33+0000,-33.10,-38.47,-34.33,-38.22,-49.60,-49.24
2023/03/12 01:13:25+0000,-33.02,-38.08,-34.03,-36.49,-52.65,-47.74
2023/03/12 01:14:17+0000,-33.57,-39.47,-33.71,-37.56,-50.04,-52.90
2023/03/12 01:15:09+0000,-33.56,-39.91,-33.84,-38.10,-52.19,-49.87
2023/03/12 01:16:01+0000,-33.46,-38.70,-34.09,-38.06,-50.82,-52.93
2023/03/12 01:16:53+0000,-33.44,-39.15,-33.33,-36.99,-49.51,-48.24
2023/03/12 01:17:45+0000,-32.31,-38.99,-34.39,-37.44,-49.97,-51.06
2023/03/12 01:18:37+0000,-33.36,-39.83,-34.33,-36.73,-49.84,-50.66
2023/03/12 01:19:29+0000,-33.40,-40.51,-34.46,-35.38,-50.24,-48.49
2023/03/12 01:20:22+0000,-33.42,-40.19,-33.42,-36.77,-49.85,-45.94
2023/03/12 01:21:20+0000,-33.63,-39.88,-33.77,-38.49,-50.27,-48.99
2023/03/12 01:22:12+0000,-33.14,-40.85,-34.83,-38.24,-49.91,-51.04
2023/03/12 01:23:04+0000,-33.27,-40.64,-34.13,-38.69,-50.47,-51.61
2023/03/12 01:23:56+0000,-33.72,-40.14,-34.25,-37.26,-51.25,-45.44
2023/03/12 01:24:48+0000,-33.48,-41.99,-33.78,-37.35,-48.41,-52.93
2023/03/12 01:25:40+0000,-33.00,-40.48,-34.19,-38.92,-50.50,-50.99
2023/03/12 01:26:32+0000,-33.43,-39.96,-34.07,-37.29,-49.86,-53.36
2023/03/12 01:27:24+0000,-33.09,-39.91,-34.48,-37.32,-47.74,-47.12
2023/03/12 01:28:16+0000,-32.90,-39.98,-33.67,-38.85,-48.81,-53.33
2023/03/12 01:29:08+0000,-32.79,-38.48,-34.67,-38.24,-50.32,-50.01
2023/03/12 01:30:00+0000,-32.79,-39.62,-34.66,-38.13,-50.08,-49.53
2023/03/12 01:31:00+0000,-32.19,-39.47,-35.09,-37.87,-50.55,-49.62
2023/03/12 01:31:52+0000,-33.27,-39.76,-34.32,-38.57,-49.12,-49.82
2023/03/12 01:32:44+0000,-31.72,-39.08,-34.60,-37.60,-48.71,-51.35
2023/03/12 01:33:36+0000,-33.02,-38.96,-34.20,-38.12,-49.03,-47.60
2023/03/12 01:34:28+0000,-34.01,-38.36,-34.75,-38.45,-49.87,-50.49
2023/03/12 01:35:20+0000,-33.36,-37.67,-34.71,-38.40,-49.19,-47.44
2023/03/12 01:36:12+0000,-32.66,-39.52,-34.68,-38.04,-50.80,-49.03
2023/03/12 01:37:04+0000,-31.93,-39.46,-34.88,-39.34,-51.14,-49.30
2023/03/12 01:37:56+0000,-32.65,-39.15,-34.64,-37.70,-50.58,-47.76
2023/03/12 01:38:48+0000,-33.32,-38.50,-35.92,-38.62,-48.83,-53.71
2023/03/12 01:39:40+0000,-33.12,-40.82,-35.07,-39.14,-51.18,-44.22
2023/03/12 01:40:32+0000,-32.43,-39.32,-34.50,-37.47,-49.96,-53.52
2023/03/12 01:41:31+0000,-33.71,-38.85,-34.56,-38.45,-50.28,-51.56
2023/03/12 01:42:23+0000,-32.53,-40.02,-34.68,-38.87,-49.50,-51.21
2023/03/12 01:43:15+0000,-31.87,-39.99,-34.79,-36.06,-48.57,-47.08
2023/03/12 01:44:07+0000,-32.78,-40.50,-34.28,-35.81,-48.40,-49.90
2023/03/12 01:44:59+0000,-33.33,-38.09,-34.96,-37.34,-50.68,-50.34
2023/03/12 01:45:51+0000,-32.82,-39.71,-35.20,-38.47,-48.76,-50.41
2023/03/12 01:46:43+0000,-33.28,-40.29,-34.94,-36.50,-47.47,-51.26
2023/03/12 01:47:35+0000,-33.30,-39.99,-34.37,-37.58,-49.45,-51.30
2023/03/12 01:48:27+0000,-32.90,-40.76,-34.78,-37.96,-50.90,-50.75
2023/03/12 01:49:19+0000,-31.56,-40.11,-35.26,-38.95,-48.94,-51.28
2023/03/12 01:50:11+0000,-33.06,-39.63,-34.71,-38.36,-49.97,-51.24
2023/03/12 01:51:11+0000,-33.24,-40.40,-34.49,-37.35,-50.67,-49.49
2023/03/12 01:52:03+0000,-33.23,-40.62,-35.04,-38.78,-48.59,-52.60
2023/03/12 01:52:55+0000,-33.59,-41.22,-35.43,-37.95,-47.21,-49.76
2023/03/12 01:53:47+0000,-33.20,-40.25,-34.62,-37.65,-43.68,-52.30
2023/03/12 01:54:39+0000,-32.80,-40.32,-34.96,-37.26,-49.68,-50.36
2023/03/12 01:55:31+0000,-32.46,-39.62,-34.69,-37.61,-49.82,-51.06
2023/03/12 01:56:23+0000,-32.66,-39.49,-34.77,-37.94,-47.93,-51.12
2023/03/12 01:57:15+0000,-32.27,-39.14,-35.33,-37.43,-48.64,-51.71
2023/03/12 01:58:07+0000,-32.51,-38.72,-34.48,-38.40,-49.83,-47.75
2023/03/12 01:58:59+0000,-32.13,-39.39,-35.15,-37.45,-49.48,-50.56
2023/03/12 01:59:51+0000,-33.40,-39.21,-35.14,-39.00,-48.90,-50.68
2023/03/12 02:00:43+0000,-32.97,-39.20,-35.12,-35.68,-48.44,-51.82
2023/03/12 02:01:43+0000,-32.83,-39.32,-34.74,-35.84,-49.61,-51.37
2023/03/12 02:02:35+0000,-32.63,-38.88,-34.91,-38.13,-47.93,-51.08
2023/03/12 02:03:27+0000,-32.51,-39.39,-35.57,-37.08,-46.64,-51.99
2023/03/12 02:04:19+0000,-32.36,-39.35,-34.99,-38.92,-47.24,-51.38
2023/03/12 02:05:11+0000,-32.54,-39.19,-35.27,-38.15,-48.96,-51.44
2023/03/12 02:06:03+0000,-32.16,-39.85,-32.95,-38.10,-49.11,-51.37
2023/03/12 02:06:55+0000,-32.95,-40.45,-35.15,-38.00,-50.60,-51.76
2023/03/12 02:07:47+0000,-32.09,-40.70,-34.68,-38.41,-49.59,-52.23
2023/03/12 02:08:39+0000,-32.12,-39.62,-33.99,-38.12,-50.40,-52.34
2023/03/12 02:09:31+0000,-32.98,-39.67,-34.83,-37.60,-47.79,-52.35
2023/03/12 02:10:24+0000,-32.51,-39.56,-35.25,-37.45,-50.19,-52.18
2023/03/12 02:11:22+0000,-33.08,-39.20,-35.12,-38.34,-46.94,-52.39
2023/03/12 02:12:14+0000,-32.45,-39.01,-35.39,-37.93,-47.01,-51.54
2023/03/12 02:13:06+0000,-32.42,-39.84,-34.55,-37.00,-48.68,-51.65
2023/03/12 02:13:58+0000,-32.92,-41.80,-35.26,-37.10,-49.07,-52.01
2023/03/12 02:14:50+0000,-32.85,-39.85,-34.61,-36.65,-48.25,-52.24
2023/03/12 02:15:42+0000,-32.77,-38.99,-35.59,-38.08,-48.37,-52.27
2023/03/12 02:16:34+0000,-32.89,-39.78,-35.17,-38.66,-49.04,-51.50
2023/03/12 02:17:26+0000,-32.75,-40.09,-35.55,-38.35,-50.18,-52.18
2023/03/12 02:18:18+0000,-32.96,-39.90,-35.08,-39.13,-47.12,-51.86
2023/03/12 02:19:10+0000,-32.93,-39.43,-33.42,-38.28,-50.20,-51.83
2023/03/12 02:20:02+0000,-32.72,-39.92,-33.92,-37.75,-49.46,-52.34
2023/03/12 02:21:02+0000,-33.17,-39.13,-34.28,-38.28,-49.98,-52.58
2023/03/12 02:21:54+0000,-32.84,-40.26,-34.53,-37.18,-49.48,-52.74
2023/03/12 02:22:46+0000,-32.42,-39.86,-34.38,-37.40,-48.75,-51.86
2023/03/12 02:23:38+0000,-33.11,-39.92,-35.21,-38.44,-47.83,-51.79
2023/03/12 02:24:30+0000,-33.17,-41.47,-35.06,-37.56,-47.11,-52.11
2023/03/12 02:25:22+0000,-33.11,-39.28,-34.80,-37.26,-49.04,-52.29
2023/03/12 02:26:14+0000,-32.47,-39.98,-34.09,-39.04,-49.00,-52.02
2023/03/12 02:27:06+0000,-33.57,-40.15,-35.20,-37.68,-49.55,-51.94
2023/03/12 02:27:58+0000,-33.26,-39.58,-35.67,-38.12,-46.65,-51.95
2023/03/12 02:28:50+0000,-33.16,-40.20,-33.61,-36.85,-48.94,-52.07
2023/03/12 02:29:43+0000,-32.83,-39.53,-35.97,-38.34,-48.04,-52.41
2023/03/12 02:30:35+0000,-32.63,-39.01,-35.05,-38.90,-47.47,-52.11
2023/03/12 02:31:34+0000,-32.54,-40.12,-34.50,-38.99,-50.17,-52.20
2023/03/12 02:32:26+0000,-33.44,-39.95,-35.73,-37.92,-44.04,-51.99
2023/03/12 02:33:18+0000,-33.32,-39.35,-33.51,-38.10,-49.27,-52.16
2023/03/12 02:43:30+0000,-33.37,-38.54,-35.29,-38.90,-50.47,-51.82
2023/03/12 02:44:29+0000,-32.88,-38.54,-34.90,-39.40,-49.72,-51.22
2023/03/12 02:45:22+0000,-33.22,-40.17,-35.33,-38.22,-49.01,-51.88
2023/03/12 02:46:14+0000,-32.64,-39.01,-35.77,-40.29,-49.18,-52.28
2023/03/12 02:47:06+0000,-32.81,-40.96,-34.92,-40.16,-49.68,-52.54
2023/03/12 02:47:58+0000,-31.79,-39.44,-35.93,-38.59,-49.79,-52.07
2023/03/12 02:48:50+0000,-32.13,-39.66,-34.22,-40.72,-48.45,-52.01
2023/03/12 02:49:42+0000,-32.91,-40.13,-35.52,-41.97,-48.90,-52.49
2023/03/12 02:50:34+0000,-32.27,-38.30,-33.70,-41.67,-49.63,-52.51
2023/03/12 02:51:32+0000,-32.62,-39.37,-34.39,-41.70,-48.68,-51.62
2023/03/12 02:52:24+0000,-33.10,-38.76,-35.56,-40.77,-49.49,-52.06
2023/03/12 02:53:17+0000,-31.97,-39.30,-35.42,-41.20,-47.77,-51.91
2023/03/12 02:54:09+0000,-32.55,-39.42,-34.54,-41.79,-49.22,-51.81
2023/03/12 02:55:01+0000,-32.14,-38.88,-34.45,-38.30,-48.79,-51.45
2023/03/12 02:55:53+0000,-32.60,-39.72,-35.57,-42.08,-49.60,-51.74
2023/03/12 02:56:45+0000,-32.64,-39.90,-35.16,-41.16,-49.87,-52.17
2023/03/12 02:57:37+0000,-32.22,-39.17,-34.14,-41.37,-48.79,-52.53
2023/03/12 02:58:29+0000,-31.82,-39.25,-34.33,-40.67,-49.26,-52.83
2023/03/12 02:59:21+0000,-32.35,-41.01,-34.80,-39.76,-48.75,-52.59
2023/03/12 03:00:14+0000,-32.25,-38.22,-35.04,-40.80,-47.90,-51.58
2023/03/12 03:01:13+0000,-32.01,-39.76,-35.47,-40.96,-47.77,-51.95
2023/03/12 03:02:06+0000,-32.53,-39.86,-34.59,-40.73,-49.28,-52.23
2023/03/12 03:02:58+0000,-32.40,-40.59,-35.55,-40.31,-49.37,-51.64
2023/03/12 03:03:50+0000,-32.87,-40.26,-35.53,-39.52,-48.85,-51.82
2023/03/12 03:04:42+0000,-32.04,-40.78,-35.49,-40.66,-48.57,-52.07
2023/03/12 03:05:34+0000,-32.82,-39.79,-34.82,-41.54,-48.77,-52.07
2023/03/12 03:06:26+0000,-32.76,-38.47,-35.50,-39.77,-49.01,-51.71
2023/03/12 03:07:18+0000,-32.12,-40.16,-35.59,-42.07,-46.40,-50.90
2023/03/12 03:08:10+0000,-31.44,-39.68,-34.73,-41.06,-47.92,-51.91
2023/03/12 03:09:02+0000,-32.67,-39.14,-34.38,-40.61,-47.84,-51.36
2023/03/12 03:09:54+0000,-32.18,-40.08,-35.07,-41.06,-47.58,-51.66
2023/03/12 03:10:46+0000,-32.49,-39.44,-35.35,-41.17,-47.53,-51.76
2023/03/12 03:11:44+0000,-32.87,-40.40,-35.67,-41.56,-47.52,-51.31
2023/03/12 03:12:36+0000,-32.97,-39.48,-35.41,-41.64,-47.55,-51.48
2023/03/12 03:13:28+0000,-31.91,-40.40,-35.74,-39.63,-47.25,-51.76
2023/03/12 03:14:20+0000,-32.25,-38.41,-35.37,-39.05,-48.33,-51.26
2023/03/12 03:15:12+0000,-31.99,-38.83,-35.37,-41.17,-48.56,-51.56
2023/03/12 03:16:05+0000,-31.83,-39.34,-35.59,-42.11,-48.77,-51.48
2023/03/12 03:16:57+0000,-32.11,-39.50,-35.99,-38.50,-48.12,-51.42
2023/03/12 03:17:49+0000,-33.15,-39.59,-35.90,-41.45,-48.69,-51.90
2023/03/12 03:18:41+0000,-31.35,-38.64,-35.51,-41.05,-48.99,-50.55
2023/03/12 03:19:33+0000,-31.71,-40.40,-35.58,-41.78,-46.73,-51.94
2023/03/12 03:20:25+0000,-31.48,-39.07,-35.46,-41.16,-48.76,-51.49
2023/03/12 03:21:23+0000,-32.13,-39.06,-35.78,-41.61,-47.88,-51.94
2023/03/12 03:22:15+0000,-32.64,-38.15,-35.80,-41.24,-47.60,-51.18
2023/03/12 03:23:07+0000,-33.09,-39.01,-35.39,-40.94,-47.46,-51.34
2023/03/12 03:23:59+0000,-32.51,-38.81,-36.11,-40.69,-46.60,-50.79
2023/03/12 03:24:51+0000,-32.41,-40.12,-35.68,-39.99,-47.44,-51.29
2023/03/12 03:25:43+0000,-31.16,-37.63,-36.00,-40.51,-48.05,-50.96
2023/03/12 03:26:35+0000,-31.64,-38.93,-35.28,-41.38,-48.70,-51.55
2023/03/12 03:27:27+0000,-32.74,-40.28,-35.83,-37.33,-47.85,-51.00
2023/03/12 03:28:19+0000,-32.88,-39.14,-36.12,-41.49,-47.80,-51.30
2023/03/12 03:29:11+0000,-33.07,-38.07,-34.40,-40.55,-48.44,-50.97
2023/03/12 03:30:04+0000,-32.61,-38.52,-35.36,-42.09,-47.03,-51.04
2023/03/12 03:31:03+0000,-31.69,-39.12,-34.92,-38.31,-47.51,-51.35
2023/03/12 03:31:55+0000,-31.80,-40.45,-35.72,-38.25,-47.41,-51.50
2023/03/12 03:32:47+0000,-32.34,-40.31,-35.30,-39.92,-47.74,-51.82
2023/03/12 03:33:39+0000,-32.64,-39.38,-35.20,-38.90,-47.71,-50.80
2023/03/12 03:34:31+0000,-32.65,-39.69,-35.38,-37.67,-46.93,-50.85
2023/03/12 03:35:23+0000,-32.14,-39.61,-35.79,-38.72,-48.60,-50.69
2023/03/12 03:36:15+0000,-32.59,-37.50,-35.86,-41.11,-48.71,-50.55
2023/03/12 03:37:07+0000,-32.71,-41.13,-34.89,-41.43,-48.98,-51.35
2023/03/12 03:37:59+0000,-32.59,-39.95,-35.65,-40.21,-48.64,-51.31
2023/03/12 03:38:51+0000,-32.32,-39.76,-35.69,-41.33,-48.13,-51.18
2023/03/12 03:39:43+0000,-31.45,-39.79,-36.17,-40.38,-48.09,-46.02
2023/03/12 03:40:36+0000,-31.03,-40.45,-34.98,-41.30,-49.05,-45.31
2023/03/12 03:41:33+0000,-31.91,-39.74,-35.05,-41.23,-48.32,-50.82
2023/03/12 03:42:26+0000,-32.21,-39.75,-36.02,-40.95,-48.92,-50.71
2023/03/12 03:43:18+0000,-32.10,-39.98,-35.21,-40.07,-48.48,-50.11
2023/03/12 03:44:10+0000,-32.51,-40.38,-34.58,-40.15,-48.86,-51.23
2023/03/12 03:45:02+0000,-32.18,-39.26,-34.89,-40.02,-48.96,-51.61
2023/03/12 03:45:54+0000,-33.12,-40.42,-35.97,-40.49,-48.39,-51.26
2023/03/12 03:46:46+0000,-32.43,-39.57,-35.39,-41.08,-49.46,-51.23
2023/03/12 03:47:38+0000,-32.69,-40.85,-34.18,-40.26,-48.20,-51.43
2023/03/12 03:48:30+0000,-33.06,-40.33,-36.47,-39.64,-47.86,-51.89
2023/03/12 03:49:22+0000,-32.51,-41.04,-35.74,-38.92,-48.09,-45.76
2023/03/12 03:50:14+0000,-31.95,-39.75,-36.06,-40.03,-48.53,-51.36
2023/03/12 03:51:14+0000,-31.98,-38.86,-35.83,-40.33,-47.91,-51.40
2023/03/12 03:52:06+0000,-32.13,-39.90,-34.73,-40.31,-48.70,-51.57
2023/03/12 03:52:58+0000,-31.49,-40.73,-35.53,-39.71,-48.95,-45.50
2023/03/12 03:53:50+0000,-31.77,-39.39,-35.80,-41.34,-48.87,-45.35
2023/03/12 03:54:42+0000,-32.62,-39.32,-34.44,-40.51,-48.21,-51.56
2023/03/12 03:55:34+0000,-32.25,-41.23,-32.65,-39.11,-48.37,-51.25
2023/03/12 03:56:26+0000,-31.93,-40.35,-35.19,-39.89,-48.98,-46.01
2023/03/12 03:57:18+0000,-31.97,-38.96,-35.74,-40.79,-48.40,-51.01
2023/03/12 03:58:10+0000,-32.29,-40.20,-32.68,-40.47,-48.28,-51.09
2023/03/12 03:59:02+0000,-32.91,-39.99,-33.38,-40.30,-48.20,-51.09
2023/03/12 03:59:54+0000,-32.01,-41.07,-35.38,-41.30,-48.94,-51.42
2023/03/12 04:00:46+0000,-33.13,-37.73,-35.10,-40.16,-48.32,-51.37
2023/03/12 04:01:45+0000,-31.74,-38.85,-35.40,-39.67,-49.30,-51.46
2023/03/12 04:02:37+0000,-31.72,-39.29,-33.21,-39.29,-48.38,-51.04
2023/03/12 04:03:29+0000,-32.65,-39.81,-33.09,-41.12,-48.67,-45.61
2023/03/12 04:04:21+0000,-32.45,-39.97,-35.24,-40.58,-48.61,-50.96
2023/03/12 04:05:13+0000,-32.43,-39.41,-35.42,-40.29,-48.37,-45.68
2023/03/12 04:06:05+0000,-32.41,-39.11,-34.73,-40.37,-47.99,-51.22
2023/03/12 04:06:57+0000,-32.43,-39.61,-35.80,-41.07,-48.36,-51.23
2023/03/12 04:07:49+0000,-32.14,-41.12,-35.28,-40.92,-48.03,-51.15
2023/03/12 04:08:41+0000,-31.70,-38.54,-36.25,-38.27,-48.33,-51.06
2023/03/12 04:09:33+0000,-31.84,-39.64,-34.52,-41.05,-48.55,-46.05
2023/03/12 04:10:26+0000,-31.69,-39.11,-36.22,-41.25,-48.42,-45.69
2023/03/12 04:11:25+0000,-32.33,-39.04,-35.60,-39.85,-49.28,-51.50
2023/03/12 04:12:17+0000,-32.90,-39.02,-36.15,-40.68,-49.16,-51.76
2023/03/12 04:13:09+0000,-32.12,-38.83,-35.05,-40.78,-48.47,-50.91
2023/03/12 04:14:01+0000,-32.07,-39.54,-34.90,-40.84,-48.40,-51.51
2023/03/12 04:14:53+0000,-32.76,-39.33,-35.79,-41.10,-48.83,-44.82
2023/03/12 04:15:45+0000,-32.70,-38.96,-35.89,-40.11,-48.85,-50.69
2023/03/12 04:16:37+0000,-32.13,-38.80,-34.32,-39.30,-48.81,-50.83
2023/03/12 04:17:29+0000,-32.83,-39.36,-34.50,-41.65,-49.04,-44.92
2023/03/12 04:18:21+0000,-31.99,-39.84,-35.93,-39.89,-48.59,-50.14
2023/03/12 04:19:13+0000,-31.79,-39.40,-35.56,-39.90,-49.14,-50.84
2023/03/12 04:20:06+0000,-32.19,-39.81,-34.14,-39.11,-49.00,-51.35
2023/03/12 04:21:05+0000,-32.39,-39.80,-35.06,-39.47,-48.98,-50.90
2023/03/12 04:21:57+0000,-31.94,-39.09,-35.46,-38.93,-50.15,-52.25
2023/03/12 04:22:49+0000,-34.93,-38.94,-35.64,-47.25,-49.73,-52.58
2023/03/12 04:23:41+0000,-33.62,-38.90,-34.28,-43.95,-50.33,-52.41
2023/03/12 04:24:33+0000,-32.57,-39.62,-35.29,-47.83,-50.10,-52.43
2023/03/12 04:25:25+0000,-37.02,-40.13,-36.00,-47.05,-49.99,-52.73
2023/03/12 04:26:17+0000,-36.54,-41.02,-35.51,-44.50,-50.66,-52.68
2023/03/12 04:27:09+0000,-34.25,-40.17,-34.85,-44.67,-49.84,-52.77
2023/03/12 04:28:01+0000,-35.86,-40.32,-35.52,-47.51,-50.67,-52.37
2023/03/12 04:28:53+0000,-36.17,-38.06,-35.75,-46.58,-50.48,-52.05
2023/03/12 04:29:46+0000,-37.18,-39.26,-35.77,-44.46,-50.32,-52.72
2023/03/12 04:30:38+0000,-37.56,-40.44,-34.61,-45.69,-49.97,-52.29
2023/03/12 04:31:36+0000,-35.46,-40.11,-34.05,-44.85,-50.41,-52.19
2023/03/12 04:32:28+0000,-36.91,-39.93,-35.92,-47.93,-50.61,-52.47
2023/03/12 04:33:20+0000,-36.87,-39.80,-35.15,-47.90,-50.83,-52.11
2023/03/12 04:34:12+0000,-35.18,-39.14,-35.62,-45.66,-50.47,-52.40
2023/03/12 04:35:04+0000,-36.31,-40.09,-34.66,-48.39,-50.37,-51.63
2023/03/12 04:35:56+0000,-36.76,-41.17,-35.22,-46.44,-50.27,-52.31
2023/03/12 04:36:48+0000,-36.80,-39.81,-35.35,-44.47,-50.95,-52.04
2023/03/12 04:37:40+0000,-35.01,-39.18,-35.11,-45.94,-50.59,-51.56
2023/03/12 04:38:32+0000,-35.95,-40.82,-35.27,-45.24,-50.92,-52.12
2023/03/12 04:39:25+0000,-35.97,-39.60,-35.58,-47.16,-51.24,-53.27
2023/03/12 04:40:17+0000,-35.92,-39.47,-36.01,-45.96,-50.46,-52.34
2023/03/12 04:41:21+0000,-35.80,-40.70,-34.86,-47.07,-50.91,-51.92
2023/03/12 04:42:13+0000,-35.14,-39.81,-35.48,-44.13,-50.72,-52.63
2023/03/12 04:43:05+0000,-35.41,-40.50,-35.57,-47.97,-50.43,-52.16
2023/03/12 04:43:57+0000,-37.31,-40.57,-35.23,-46.54,-50.60,-52.25
2023/03/12 04:44:49+0000,-36.47,-39.53,-34.95,-47.99,-49.74,-52.28
2023/03/12 04:45:41+0000,-34.86,-39.15,-34.81,-43.92,-50.45,-51.84
2023/03/12 04:46:33+0000,-36.15,-40.04,-34.54,-47.23,-50.44,-51.55
2023/03/12 04:47:25+0000,-37.50,-40.20,-35.08,-47.67,-50.83,-51.58